ETH3MD FOOL-FZAA

Flight info

Callsign ETH3MD
Flight time 1h 8m
Altitude 35000
Route PONOT1S PONOT DCT UBUVA DCT DETNU DCT VOPAT DCT OTGID DCT A24C1 DCT OK
Aircraft MD11/H-SDE1E2E3FGHIJ2J3J4J5M1RWXY/LB1D1

Departure

Time 2026-04-18 06:11
Airport Libreville Leon M'ba International Airport (FOOL)

Arrival

Time 2026-04-18 07:19
Airport Ndjili International Airport (FZAA)
Time Latitude Longitude Altitude Speed Heading
2026-04-18 05:48 0.45496 9.41188 55 ft 0 kts 244°
2026-04-18 06:02 0.45497 9.41190 55 ft 1 kts 244°
2026-04-18 06:02 0.45504 9.41204 55 ft 2 kts 244°
2026-04-18 06:03 0.45511 9.41218 55 ft 2 kts 244°
2026-04-18 06:03 0.45517 9.41231 55 ft 2 kts 256°
2026-04-18 06:03 0.45518 9.41247 55 ft 2 kts 281°
2026-04-18 06:03 0.45513 9.41261 55 ft 2 kts 302°
2026-04-18 06:04 0.45503 9.41272 55 ft 2 kts 324°
2026-04-18 06:04 0.45495 9.41276 55 ft 1 kts 335°
2026-04-18 06:04 0.45493 9.41277 55 ft 0 kts 335°
2026-04-18 06:06 0.45494 9.41277 55 ft 0 kts 335°
2026-04-18 06:06 0.45523 9.41263 55 ft 11 kts 334°
2026-04-18 06:06 0.45570 9.41249 55 ft 5 kts 19°
2026-04-18 06:07 0.45621 9.41294 56 ft 15 kts 47°
2026-04-18 06:07 0.45700 9.41308 56 ft 14 kts 334°
2026-04-18 06:07 0.45826 9.41247 57 ft 25 kts 334°
2026-04-18 06:07 0.46016 9.41155 58 ft 34 kts 333°
2026-04-18 06:08 0.46249 9.41041 60 ft 37 kts 334°
2026-04-18 06:08 0.46484 9.40929 61 ft 35 kts 334°
2026-04-18 06:08 0.46690 9.40828 62 ft 31 kts 334°
2026-04-18 06:08 0.46888 9.40731 60 ft 29 kts 333°
2026-04-18 06:09 0.46997 9.40669 59 ft 11 kts 311°
2026-04-18 06:09 0.47026 9.40626 59 ft 2 kts 340°
2026-04-18 06:09 0.47037 9.40626 59 ft 1 kts 27°
2026-04-18 06:09 0.47041 9.40634 59 ft 1 kts 88°
2026-04-18 06:10 0.47035 9.40645 59 ft 3 kts 121°
2026-04-18 06:10 0.46959 9.40700 59 ft 36 kts 153°
2026-04-18 06:10 0.46499 9.40922 62 ft 108 kts 155°
2026-04-18 06:10 0.45606 9.41356 57 ft 169 kts 153°
2026-04-18 06:11 0.44475 9.41911 402 ft 181 kts 151°
2026-04-18 06:11 0.43400 9.42602 858 ft 186 kts 135°
2026-04-18 06:11 0.42790 9.43684 1502 ft 181 kts 97°
2026-04-18 06:11 0.42758 9.44979 1924 ft 195 kts 88°
2026-04-18 06:12 0.42803 9.46453 2138 ft 223 kts 90°
2026-04-18 06:12 0.42773 9.48099 2407 ft 249 kts 88°
2026-04-18 06:12 0.43170 9.49817 3006 ft 261 kts 62°
2026-04-18 06:12 0.44069 9.51409 3787 ft 269 kts 58°
2026-04-18 06:13 0.45010 9.53039 4663 ft 273 kts 60°
2026-04-18 06:13 0.45916 9.54735 5499 ft 273 kts 62°
2026-04-18 06:13 0.46793 9.56462 5937 ft 274 kts 63°
2026-04-18 06:13 0.47537 9.58227 5995 ft 275 kts 76°
2026-04-18 06:14 0.47631 9.59962 6031 ft 280 kts 100°
2026-04-18 06:14 0.46892 9.61752 6833 ft 282 kts 123°
2026-04-18 06:14 0.45609 9.63254 7636 ft 286 kts 131°
2026-04-18 06:14 0.44224 9.64706 8412 ft 288 kts 129°
2026-04-18 06:15 0.42850 9.66214 9208 ft 290 kts 128°
2026-04-18 06:15 0.41533 9.67720 9963 ft 291 kts 127°
2026-04-18 06:15 0.40172 9.69309 10597 ft 304 kts 127°
2026-04-18 06:15 0.38747 9.70993 10783 ft 333 kts 127°
2026-04-18 06:16 0.37179 9.72843 10827 ft 359 kts 127°
2026-04-18 06:16 0.35507 9.74809 10832 ft 372 kts 127°
2026-04-18 06:16 0.33791 9.76824 10837 ft 382 kts 127°
2026-04-18 06:16 0.32053 9.78866 10837 ft 387 kts 127°
2026-04-18 06:17 0.30277 9.80954 10834 ft 387 kts 127°
2026-04-18 06:17 0.28480 9.83069 10833 ft 386 kts 127°
2026-04-18 06:17 0.26758 9.85097 10859 ft 389 kts 128°
2026-04-18 06:17 0.24917 9.87263 11928 ft 389 kts 127°
2026-04-18 06:18 0.23134 9.89365 12784 ft 395 kts 127°
2026-04-18 06:18 0.21262 9.91573 13630 ft 401 kts 127°
2026-04-18 06:18 0.19366 9.93812 14466 ft 407 kts 128°
2026-04-18 06:18 0.17504 9.96009 15285 ft 411 kts 128°
2026-04-18 06:19 0.15523 9.98346 16075 ft 417 kts 128°
2026-04-18 06:19 0.13620 10.00591 16790 ft 422 kts 128°
2026-04-18 06:19 0.11611 10.02957 17507 ft 428 kts 128°
2026-04-18 06:19 0.09596 10.05333 18216 ft 433 kts 128°
2026-04-18 06:20 0.07599 10.07685 18924 ft 436 kts 128°
2026-04-18 06:20 0.05495 10.10163 19654 ft 440 kts 128°
2026-04-18 06:20 0.03491 10.12527 20295 ft 444 kts 129°
2026-04-18 06:20 0.01383 10.15012 20941 ft 449 kts 129°
2026-04-18 06:21 -0.00677 10.17441 21544 ft 453 kts 129°
2026-04-18 06:21 -0.02841 10.19989 22176 ft 457 kts 129°
2026-04-18 06:21 -0.04957 10.22485 22762 ft 462 kts 129°
2026-04-18 06:21 -0.07138 10.25056 23360 ft 466 kts 129°
2026-04-18 06:22 -0.09372 10.27692 23896 ft 472 kts 129°
2026-04-18 06:22 -0.11527 10.30233 24416 ft 476 kts 129°
2026-04-18 06:22 -0.13818 10.32933 24974 ft 480 kts 129°
2026-04-18 06:22 -0.16090 10.35611 25511 ft 484 kts 130°
2026-04-18 06:23 -0.18372 10.38300 26026 ft 487 kts 129°
2026-04-18 06:23 -0.20750 10.41101 26685 ft 488 kts 130°
2026-04-18 06:23 -0.22968 10.43717 27123 ft 493 kts 130°
2026-04-18 06:23 -0.25387 10.46568 27634 ft 496 kts 130°
2026-04-18 06:24 -0.27706 10.49301 28133 ft 499 kts 130°
2026-04-18 06:24 -0.29942 10.51938 28803 ft 497 kts 130°
2026-04-18 06:24 -0.32208 10.54610 29505 ft 496 kts 130°
2026-04-18 06:24 -0.34451 10.57255 30186 ft 494 kts 130°
2026-04-18 06:25 -0.36651 10.59848 30870 ft 492 kts 130°
2026-04-18 06:25 -0.38872 10.62469 31486 ft 490 kts 130°
2026-04-18 06:25 -0.41095 10.65091 32091 ft 489 kts 130°
2026-04-18 06:25 -0.43306 10.67698 32664 ft 487 kts 130°
2026-04-18 06:26 -0.45481 10.70263 33179 ft 487 kts 130°
2026-04-18 06:26 -0.47713 10.72890 33757 ft 486 kts 130°
2026-04-18 06:26 -0.49933 10.75505 34285 ft 484 kts 130°
2026-04-18 06:26 -0.52166 10.78140 34805 ft 483 kts 131°
2026-04-18 06:27 -0.54365 10.80732 34852 ft 486 kts 131°
2026-04-18 06:27 -0.58883 10.86059 34867 ft 483 kts 130°
2026-04-18 06:28 -0.63277 10.91239 34876 ft 482 kts 130°
2026-04-18 06:28 -0.67913 10.96323 34889 ft 482 kts 137°
2026-04-18 06:29 -0.72988 11.00962 34876 ft 483 kts 138°
2026-04-18 06:29 -0.78050 11.05637 34878 ft 482 kts 137°
2026-04-18 06:30 -0.83116 11.10355 34884 ft 483 kts 137°
2026-04-18 06:30 -0.88097 11.14998 34891 ft 484 kts 137°
2026-04-18 06:31 -0.93117 11.19676 34901 ft 484 kts 137°
2026-04-18 06:31 -0.98069 11.24289 34904 ft 483 kts 137°
2026-04-18 06:32 -1.03061 11.28943 34914 ft 482 kts 137°
2026-04-18 06:32 -1.08054 11.33706 34919 ft 481 kts 135°
2026-04-18 06:33 -1.12545 11.38740 34926 ft 483 kts 129°
2026-04-18 06:33 -1.16903 11.44140 34919 ft 482 kts 129°
2026-04-18 06:34 -1.21173 11.49440 34921 ft 481 kts 129°
2026-04-18 06:34 -1.25416 11.54696 34929 ft 480 kts 129°
2026-04-18 06:35 -1.29659 11.59948 34935 ft 479 kts 129°
2026-04-18 06:35 -1.33916 11.65219 34947 ft 478 kts 129°
2026-04-18 06:36 -1.38123 11.70426 34960 ft 479 kts 129°
2026-04-18 06:36 -1.42360 11.75671 34964 ft 479 kts 129°
2026-04-18 06:37 -1.46587 11.80906 34967 ft 479 kts 129°
2026-04-18 06:37 -1.50788 11.86108 34978 ft 478 kts 129°
2026-04-18 06:38 -1.54963 11.91279 34986 ft 478 kts 129°
2026-04-18 06:38 -1.59196 11.96521 34995 ft 479 kts 129°
2026-04-18 06:39 -1.63395 12.01720 35007 ft 479 kts 128°
2026-04-18 06:39 -1.67603 12.06934 35003 ft 479 kts 128°
2026-04-18 06:40 -1.71779 12.12103 35006 ft 478 kts 128°
2026-04-18 06:40 -1.75964 12.17294 34998 ft 479 kts 128°
2026-04-18 06:41 -1.80197 12.22543 34995 ft 478 kts 128°
2026-04-18 06:41 -1.84408 12.27762 34988 ft 478 kts 128°
2026-04-18 06:42 -1.88489 12.32821 34990 ft 479 kts 128°
2026-04-18 06:42 -1.92721 12.38068 34989 ft 479 kts 128°
2026-04-18 06:43 -1.96958 12.43321 34980 ft 480 kts 128°
2026-04-18 06:43 -2.01150 12.48516 34995 ft 479 kts 128°
2026-04-18 06:44 -2.05376 12.53754 34996 ft 479 kts 128°
2026-04-18 06:44 -2.09568 12.58949 34989 ft 479 kts 128°
2026-04-18 06:45 -2.13786 12.64178 34981 ft 479 kts 128°
2026-04-18 06:45 -2.17979 12.69374 34969 ft 479 kts 128°
2026-04-18 06:46 -2.22189 12.74593 34957 ft 479 kts 128°
2026-04-18 06:46 -2.26399 12.79813 34959 ft 479 kts 128°
2026-04-18 06:47 -2.30607 12.85035 34953 ft 479 kts 128°
2026-04-18 06:47 -2.34817 12.90258 34952 ft 479 kts 128°
2026-04-18 06:48 -2.38867 12.95283 34949 ft 479 kts 128°
2026-04-18 06:48 -2.43061 13.00485 34952 ft 479 kts 128°
2026-04-18 06:49 -2.47202 13.05793 34944 ft 479 kts 126°
2026-04-18 06:49 -2.51071 13.11258 34944 ft 479 kts 124°
2026-04-18 06:50 -2.54892 13.16742 34948 ft 478 kts 124°
2026-04-18 06:50 -2.58729 13.22237 34955 ft 478 kts 124°
2026-04-18 06:51 -2.62553 13.27707 34956 ft 479 kts 124°
2026-04-18 06:51 -2.66384 13.33183 34954 ft 478 kts 124°
2026-04-18 06:52 -2.70188 13.38626 34955 ft 477 kts 124°
2026-04-18 06:52 -2.74035 13.44124 34963 ft 477 kts 124°
2026-04-18 06:53 -2.77844 13.49567 34964 ft 478 kts 124°
2026-04-18 06:53 -2.81681 13.55053 34962 ft 477 kts 124°
2026-04-18 06:54 -2.85503 13.60516 34959 ft 477 kts 124°
2026-04-18 06:54 -2.89325 13.65978 34959 ft 477 kts 124°
2026-04-18 06:55 -2.93148 13.71445 34959 ft 477 kts 124°
2026-04-18 06:55 -2.96990 13.76932 34963 ft 478 kts 124°
2026-04-18 06:56 -3.00804 13.82394 34965 ft 478 kts 124°
2026-04-18 06:56 -3.04616 13.87859 34966 ft 477 kts 124°
2026-04-18 06:57 -3.08452 13.93356 34969 ft 477 kts 124°
2026-04-18 06:57 -3.14026 14.01337 34966 ft 477 kts 124°
2026-04-18 06:58 -3.17882 14.06861 34958 ft 479 kts 124°
2026-04-18 06:58 -3.21708 14.12341 34954 ft 479 kts 124°
2026-04-18 06:59 -3.23612 14.15069 34740 ft 475 kts 124°
2026-04-18 06:59 -3.25533 14.17816 34093 ft 479 kts 124°
2026-04-18 06:59 -3.27453 14.20566 33843 ft 482 kts 124°
2026-04-18 06:59 -3.29397 14.23351 33616 ft 484 kts 124°
2026-04-18 07:00 -3.31340 14.26132 33390 ft 485 kts 124°
2026-04-18 07:00 -3.33282 14.28911 33163 ft 484 kts 124°
2026-04-18 07:00 -3.35219 14.31685 32938 ft 485 kts 124°
2026-04-18 07:00 -3.37159 14.34462 32713 ft 485 kts 124°
2026-04-18 07:01 -3.39119 14.37266 32506 ft 486 kts 124°
2026-04-18 07:01 -3.41047 14.40026 32303 ft 488 kts 124°
2026-04-18 07:01 -3.43003 14.42830 32095 ft 489 kts 124°
2026-04-18 07:01 -3.44970 14.45645 31682 ft 491 kts 124°
2026-04-18 07:02 -3.46926 14.48452 31024 ft 492 kts 124°
2026-04-18 07:02 -3.48890 14.51271 30283 ft 493 kts 124°
2026-04-18 07:02 -3.50871 14.54115 29531 ft 494 kts 124°
2026-04-18 07:02 -3.52854 14.56962 28730 ft 497 kts 124°
2026-04-18 07:03 -3.54821 14.59785 27971 ft 500 kts 124°
2026-04-18 07:03 -3.56879 14.62738 27136 ft 504 kts 124°
2026-04-18 07:03 -3.58937 14.65695 26304 ft 506 kts 123°
2026-04-18 07:03 -3.61005 14.68664 25488 ft 506 kts 124°
2026-04-18 07:04 -3.63096 14.71663 24827 ft 498 kts 123°
2026-04-18 07:04 -3.65067 14.74492 24092 ft 491 kts 123°
2026-04-18 07:04 -3.67196 14.77545 23345 ft 484 kts 123°
2026-04-18 07:04 -3.69133 14.80326 22606 ft 478 kts 123°
2026-04-18 07:05 -3.71117 14.83171 21837 ft 472 kts 123°
2026-04-18 07:05 -3.73114 14.86040 21061 ft 466 kts 123°
2026-04-18 07:05 -3.74975 14.88715 20305 ft 461 kts 123°
2026-04-18 07:05 -3.76972 14.91580 19522 ft 455 kts 124°
2026-04-18 07:06 -3.78843 14.94267 18745 ft 451 kts 124°
2026-04-18 07:06 -3.80688 14.96910 18015 ft 445 kts 124°
2026-04-18 07:06 -3.82599 14.99651 17242 ft 440 kts 123°
2026-04-18 07:06 -3.84374 15.02195 16533 ft 431 kts 123°
2026-04-18 07:07 -3.86180 15.04783 15814 ft 410 kts 123°
2026-04-18 07:07 -3.87860 15.07189 15287 ft 389 kts 123°
2026-04-18 07:07 -3.89427 15.09436 14655 ft 374 kts 123°
2026-04-18 07:07 -3.90984 15.11670 14173 ft 354 kts 122°
2026-04-18 07:08 -3.92385 15.13681 13947 ft 334 kts 122°
2026-04-18 07:08 -3.93782 15.15692 13816 ft 327 kts 122°
2026-04-18 07:08 -3.95152 15.17666 13470 ft 321 kts 122°
2026-04-18 07:08 -3.96437 15.19514 13078 ft 316 kts 122°
2026-04-18 07:09 -3.97752 15.21406 12656 ft 312 kts 122°
2026-04-18 07:09 -3.98804 15.22922 12289 ft 309 kts 122°
2026-04-18 07:09 -4.00049 15.24712 11836 ft 307 kts 122°
2026-04-18 07:09 -4.01303 15.26513 11399 ft 303 kts 122°
2026-04-18 07:10 -4.02540 15.28293 10964 ft 300 kts 122°
2026-04-18 07:10 -4.03764 15.30053 10521 ft 298 kts 121°
2026-04-18 07:10 -4.04949 15.31756 10086 ft 296 kts 121°
2026-04-18 07:10 -4.06153 15.33487 9657 ft 294 kts 121°
2026-04-18 07:11 -4.07317 15.35162 9244 ft 291 kts 121°
2026-04-18 07:11 -4.08508 15.36878 8812 ft 289 kts 121°
2026-04-18 07:11 -4.09633 15.38498 8449 ft 285 kts 122°
2026-04-18 07:11 -4.10684 15.40007 8083 ft 283 kts 122°
2026-04-18 07:12 -4.11813 15.41631 7737 ft 277 kts 122°
2026-04-18 07:12 -4.12903 15.43194 7555 ft 261 kts 122°
2026-04-18 07:12 -4.13927 15.44666 7258 ft 252 kts 122°
2026-04-18 07:12 -4.14938 15.46119 6885 ft 246 kts 122°
2026-04-18 07:13 -4.15916 15.47527 6431 ft 241 kts 122°
2026-04-18 07:13 -4.16895 15.48934 6124 ft 226 kts 122°
2026-04-18 07:13 -4.17807 15.50243 5766 ft 217 kts 122°
2026-04-18 07:13 -4.18662 15.51475 5390 ft 210 kts 122°
2026-04-18 07:14 -4.19513 15.52699 4991 ft 205 kts 123°
2026-04-18 07:14 -4.20329 15.53876 4628 ft 205 kts 123°
2026-04-18 07:14 -4.21178 15.55080 4302 ft 205 kts 128°
2026-04-18 07:14 -4.22258 15.56048 4137 ft 199 kts 150°
2026-04-18 07:15 -4.23570 15.56616 4010 ft 197 kts 159°
2026-04-18 07:15 -4.24942 15.57111 3851 ft 196 kts 158°
2026-04-18 07:15 -4.26226 15.57605 3699 ft 196 kts 157°
2026-04-18 07:15 -4.27549 15.58141 3535 ft 196 kts 156°
2026-04-18 07:16 -4.28884 15.58461 3363 ft 195 kts 187°
2026-04-18 07:16 -4.30159 15.57840 3221 ft 196 kts 231°
2026-04-18 07:16 -4.30929 15.56639 2961 ft 196 kts 241°
2026-04-18 07:16 -4.31591 15.55430 2924 ft 196 kts 239°
2026-04-18 07:17 -4.32331 15.54191 2704 ft 192 kts 237°
2026-04-18 07:17 -4.33029 15.53079 2627 ft 182 kts 237°
2026-04-18 07:17 -4.33720 15.51997 2417 ft 179 kts 236°
2026-04-18 07:17 -4.34397 15.50945 2196 ft 177 kts 236°
2026-04-18 07:18 -4.35063 15.49907 1955 ft 175 kts 236°
2026-04-18 07:18 -4.35740 15.48858 1685 ft 174 kts 236°
2026-04-18 07:18 -4.36394 15.47842 1454 ft 170 kts 236°
2026-04-18 07:18 -4.37058 15.46799 1263 ft 172 kts 237°
2026-04-18 07:19 -4.37709 15.45775 1058 ft 172 kts 237°
2026-04-18 07:19 -4.38283 15.44894 1026 ft 108 kts 237°
2026-04-18 07:19 -4.38524 15.44522 1026 ft 24 kts 237°
2026-04-18 07:19 -4.38627 15.44488 1026 ft 13 kts 155°
2026-04-18 07:20 -4.38706 15.44535 1030 ft 11 kts 155°
2026-04-18 07:20 -4.38760 15.44510 1031 ft 9 kts 230°
2026-04-18 07:20 -4.38802 15.44444 1030 ft 13 kts 238°
2026-04-18 07:20 -4.38861 15.44351 1030 ft 15 kts 237°
2026-04-18 07:21 -4.38908 15.44290 1031 ft 7 kts 205°
2026-04-18 07:21 -4.38938 15.44284 1032 ft 0 kts 173°
2026-04-18 07:21 -4.38945 15.44288 1032 ft 1 kts 142°
2026-04-18 07:21 -4.38957 15.44298 1032 ft 1 kts 141°
2026-04-18 07:22 -4.38966 15.44305 1033 ft 1 kts 146°
2026-04-18 07:22 -4.38972 15.44308 1033 ft 1 kts 146°
2026-04-18 07:22 -4.38973 15.44309 1033 ft 0 kts 146°